Tabellarische Ansicht des 12.10.2012


Die einzelnen Werte des Tages

Uhrzeit Temperatur Luftdruck Luftfeuchte Wind Hi-Wind Taupunkt THW Index Wind Chill Heat Index Solar- strahlung Regen

00:00

8.8 C

1007.5 hpa

75 %

11.3 km/h aus 116

22.5 km/h aus E

4.6 C

6.9 C

7.1 C

8.7 C

0 W/m

0.00 mm

00:05

8.8 C

1007.5 hpa

75 %

11.3 km/h aus 113

27.4 km/h aus ENE

4.6 C

6.9 C

7.1 C

8.7 C

0 W/m

0.00 mm

00:10

8.7 C

1007.5 hpa

75 %

11.3 km/h aus 118

24.1 km/h aus E

4.5 C

6.7 C

6.9 C

8.6 C

0 W/m

0.00 mm

00:15

8.7 C

1007.3 hpa

75 %

11.3 km/h aus 116

22.5 km/h aus ESE

4.5 C

6.7 C

6.9 C

8.6 C

0 W/m

0.00 mm

00:20

8.7 C

1007.3 hpa

76 %

12.9 km/h aus 117

22.5 km/h aus E

4.7 C

6.3 C

6.4 C

8.5 C

0 W/m

0.00 mm

00:25

8.6 C

1007.3 hpa

76 %

12.9 km/h aus 116

22.5 km/h aus ESE

4.6 C

6.2 C

6.4 C

8.4 C

0 W/m

0.00 mm

00:30

8.7 C

1007.2 hpa

76 %

14.5 km/h aus 117

22.5 km/h aus ESE

4.7 C

5.9 C

6.1 C

8.5 C

0 W/m

0.00 mm

00:35

8.6 C

1007.2 hpa

76 %

12.9 km/h aus 117

25.7 km/h aus E

4.6 C

6.2 C

6.4 C

8.4 C

0 W/m

0.00 mm

00:40

8.6 C

1007.2 hpa

76 %

11.3 km/h aus 117

20.9 km/h aus E

4.6 C

6.6 C

6.7 C

8.4 C

0 W/m

0.00 mm

00:45

8.5 C

1007.1 hpa

76 %

11.3 km/h aus 117

19.3 km/h aus E

4.5 C

6.5 C

6.7 C

8.3 C

0 W/m

0.00 mm

00:50

8.5 C

1007.1 hpa

76 %

12.9 km/h aus 117

24.1 km/h aus E

4.5 C

6.1 C

6.3 C

8.3 C

0 W/m

0.00 mm

00:55

8.5 C

1007.1 hpa

76 %

12.9 km/h aus 115

22.5 km/h aus ENE

4.5 C

6.1 C

6.3 C

8.3 C

0 W/m

0.00 mm

01:00

8.5 C

1006.7 hpa

76 %

17.7 km/h aus 117

30.6 km/h aus E

4.5 C

5.2 C

5.4 C

8.3 C

0 W/m

0.00 mm

01:05

8.5 C

1006.7 hpa

76 %

16.1 km/h aus 117

27.4 km/h aus ENE

4.5 C

5.5 C

5.7 C

8.3 C

0 W/m

0.00 mm

01:10

8.5 C

1006.7 hpa

76 %

14.5 km/h aus 116

24.1 km/h aus ESE

4.5 C

5.8 C

5.9 C

8.3 C

0 W/m

0.00 mm

01:15

8.4 C

1006.7 hpa

76 %

14.5 km/h aus 118

25.7 km/h aus E

4.5 C

5.7 C

5.8 C

8.3 C

0 W/m

0.00 mm

01:20

8.4 C

1006.7 hpa

76 %

14.5 km/h aus 116

29.0 km/h aus E

4.5 C

5.7 C

5.8 C

8.3 C

0 W/m

0.00 mm

01:25

8.4 C

1006.7 hpa

76 %

16.1 km/h aus 117

27.4 km/h aus E

4.5 C

5.4 C

5.6 C

8.3 C

0 W/m

0.00 mm

01:30

8.4 C

1006.7 hpa

76 %

16.1 km/h aus 117

27.4 km/h aus E

4.5 C

5.4 C

5.6 C

8.3 C

0 W/m

0.00 mm

01:35

8.4 C

1006.7 hpa

75 %

14.5 km/h aus 117

25.7 km/h aus ENE

4.3 C

5.7 C

5.8 C

8.3 C

0 W/m

0.00 mm

01:40

8.3 C

1006.7 hpa

76 %

9.7 km/h aus 116

22.5 km/h aus ESE

4.3 C

6.6 C

6.7 C

8.2 C

0 W/m

0.00 mm

01:45

8.3 C

1006.6 hpa

76 %

12.9 km/h aus 117

25.7 km/h aus ENE

4.3 C

5.8 C

6.0 C

8.1 C

0 W/m

0.00 mm

01:50

8.2 C

1006.6 hpa

76 %

9.7 km/h aus 116

24.1 km/h aus ENE

4.2 C

6.4 C

6.6 C

8.1 C

0 W/m

0.00 mm

01:55

8.1 C

1006.6 hpa

77 %

9.7 km/h aus 116

16.1 km/h aus ENE

4.3 C

6.3 C

6.4 C

7.9 C

0 W/m

0.00 mm

02:00

8.1 C

1006.5 hpa

77 %

11.3 km/h aus 116

19.3 km/h aus ESE

4.3 C

5.9 C

6.1 C

7.9 C

0 W/m

0.00 mm

02:05

8.0 C

1006.5 hpa

77 %

11.3 km/h aus 115

22.5 km/h aus E

4.2 C

5.9 C

6.1 C

7.8 C

0 W/m

0.00 mm

02:10

8.0 C

1006.5 hpa

77 %

11.3 km/h aus 116

20.9 km/h aus E

4.2 C

5.9 C

6.1 C

7.8 C

0 W/m

0.00 mm

02:15

7.9 C

1006.4 hpa

78 %

6.4 km/h aus 117

14.5 km/h aus ESE

4.3 C

6.8 C

7.0 C

7.8 C

0 W/m

0.00 mm

02:20

7.8 C

1006.4 hpa

78 %

3.2 km/h aus 115

9.7 km/h aus ESE

4.2 C

7.6 C

7.8 C

7.6 C

0 W/m

0.00 mm

02:25

7.6 C

1006.4 hpa

78 %

1.6 km/h aus 116

6.4 km/h aus ESE

4.0 C

7.4 C

7.6 C

7.4 C

0 W/m

0.00 mm

02:30

7.4 C

1006.2 hpa

79 %

1.6 km/h aus 115

4.8 km/h aus ESE

4.0 C

7.3 C

7.4 C

7.3 C

0 W/m

0.00 mm

02:35

7.3 C

1006.2 hpa

79 %

1.6 km/h aus 117

6.4 km/h aus ESE

3.9 C

7.2 C

7.3 C

7.2 C

0 W/m

0.00 mm

02:40

7.2 C

1006.2 hpa

80 %

0.0 km/h aus 116

4.8 km/h aus ESE

4.0 C

7.1 C

7.2 C

7.1 C

0 W/m

0.00 mm

02:45

7.2 C

1006.2 hpa

80 %

1.6 km/h aus 117

4.8 km/h aus ESE

3.9 C

7.1 C

7.2 C

7.1 C

0 W/m

0.00 mm

02:50

6.8 C

1006.2 hpa

81 %

0.0 km/h aus 117

4.8 km/h aus ESE

3.8 C

6.7 C

6.8 C

6.7 C

0 W/m

0.00 mm

02:55

6.6 C

1006.2 hpa

81 %

1.6 km/h aus 116

8.0 km/h aus ESE

3.6 C

6.5 C

6.6 C

6.5 C

0 W/m

0.00 mm

03:00

6.5 C

1006.0 hpa

82 %

3.2 km/h aus 116

6.4 km/h aus ESE

3.6 C

6.4 C

6.5 C

6.4 C

0 W/m

0.00 mm

03:05

6.6 C

1006.0 hpa

83 %

3.2 km/h aus 116

12.9 km/h aus ESE

3.9 C

6.6 C

6.6 C

6.6 C

0 W/m

0.00 mm

03:10

6.7 C

1006.0 hpa

83 %

4.8 km/h aus 117

11.3 km/h aus ESE

4.0 C

6.1 C

6.1 C

6.7 C

0 W/m

0.00 mm

03:15

6.8 C

1005.9 hpa

82 %

1.6 km/h aus 117

4.8 km/h aus ESE

4.0 C

6.7 C

6.8 C

6.7 C

0 W/m

0.00 mm

03:20

6.8 C

1005.9 hpa

82 %

1.6 km/h aus 117

8.0 km/h aus ESE

3.9 C

6.7 C

6.8 C

6.7 C

0 W/m

0.00 mm

03:25

6.6 C

1005.9 hpa

82 %

0.0 km/h aus 118

0.0 km/h aus ---

3.8 C

6.5 C

6.6 C

6.5 C

0 W/m

0.00 mm

03:30

6.3 C

1005.6 hpa

83 %

0.0 km/h aus 116

3.2 km/h aus ESE

3.7 C

6.2 C

6.3 C

6.2 C

0 W/m

0.00 mm

03:35

6.1 C

1005.6 hpa

84 %

0.0 km/h aus 116

1.6 km/h aus ESE

3.6 C

6.1 C

6.1 C

6.1 C

0 W/m

0.00 mm

03:40

6.1 C

1005.6 hpa

84 %

0.0 km/h aus 115

4.8 km/h aus ESE

3.6 C

6.0 C

6.1 C

6.0 C

0 W/m

0.00 mm

03:45

5.9 C

1005.6 hpa

85 %

0.0 km/h aus 117

4.8 km/h aus ESE

3.6 C

5.9 C

5.9 C

5.9 C

0 W/m

0.00 mm

03:50

6.0 C

1005.6 hpa

85 %

3.2 km/h aus 116

9.7 km/h aus ESE

3.7 C

5.9 C

6.0 C

5.9 C

0 W/m

0.00 mm

03:55

6.2 C

1005.6 hpa

86 %

4.8 km/h aus 117

9.7 km/h aus ESE

4.0 C

5.4 C

5.5 C

6.1 C

0 W/m

0.00 mm

04:00

6.6 C

1005.2 hpa

85 %

3.2 km/h aus 117

9.7 km/h aus ESE

4.3 C

6.6 C

6.6 C

6.6 C

0 W/m

0.00 mm

04:05

6.9 C

1005.2 hpa

84 %

6.4 km/h aus 117

16.1 km/h aus ENE

4.4 C

5.8 C

5.8 C

6.9 C

0 W/m

0.00 mm

04:10

7.2 C

1005.2 hpa

83 %

3.2 km/h aus 117

9.7 km/h aus ENE

4.5 C

7.1 C

7.2 C

7.1 C

0 W/m

0.00 mm

04:15

7.2 C

1005.1 hpa

83 %

1.6 km/h aus 117

8.0 km/h aus ENE

4.5 C

7.2 C

7.2 C

7.2 C

0 W/m

0.00 mm

04:20

7.3 C

1005.1 hpa

82 %

4.8 km/h aus 116

14.5 km/h aus ESE

4.5 C

6.7 C

6.8 C

7.2 C

0 W/m

0.00 mm

04:25

7.4 C

1005.1 hpa

81 %

4.8 km/h aus 118

11.3 km/h aus SE

4.4 C

6.8 C

6.9 C

7.3 C

0 W/m

0.00 mm

04:30

7.5 C

1004.8 hpa

81 %

11.3 km/h aus 117

24.1 km/h aus ESE

4.4 C

5.3 C

5.4 C

7.4 C

0 W/m

0.00 mm

04:35

7.6 C

1004.8 hpa

81 %

11.3 km/h aus 117

19.3 km/h aus E

4.6 C

5.4 C

5.6 C

7.5 C

0 W/m

0.00 mm

04:40

7.7 C

1004.8 hpa

80 %

8.0 km/h aus 117

17.7 km/h aus NE

4.5 C

6.2 C

6.3 C

7.6 C

0 W/m

0.00 mm

04:45

7.8 C

1004.6 hpa

80 %

4.8 km/h aus 117

12.9 km/h aus E

4.5 C

7.2 C

7.3 C

7.7 C

0 W/m

0.00 mm

04:50

7.8 C

1004.6 hpa

80 %

4.8 km/h aus 117

9.7 km/h aus E

4.5 C

7.2 C

7.3 C

7.7 C

0 W/m

0.00 mm

04:55

7.5 C

1004.6 hpa

80 %

1.6 km/h aus 117

6.4 km/h aus E

4.3 C

7.4 C

7.5 C

7.4 C

0 W/m

0.00 mm

05:00

6.8 C

1004.6 hpa

80 %

3.2 km/h aus 116

11.3 km/h aus E

3.6 C

6.7 C

6.8 C

6.7 C

0 W/m

0.00 mm

05:05

6.3 C

1004.6 hpa

82 %

1.6 km/h aus 117

8.0 km/h aus E

3.4 C

6.2 C

6.3 C

6.2 C

0 W/m

0.00 mm

05:10

6.0 C

1004.6 hpa

84 %

1.6 km/h aus 117

6.4 km/h aus E

3.5 C

5.9 C

6.0 C

5.9 C

0 W/m

0.00 mm

05:15

6.1 C

1004.6 hpa

85 %

1.6 km/h aus 117

8.0 km/h aus E

3.7 C

6.0 C

6.1 C

6.0 C

0 W/m

0.00 mm

05:20

6.0 C

1004.6 hpa

85 %

1.6 km/h aus 117

6.4 km/h aus E

3.7 C

5.9 C

6.0 C

5.9 C

0 W/m

0.00 mm

05:25

5.9 C

1004.6 hpa

85 %

1.6 km/h aus 117

6.4 km/h aus E

3.6 C

5.8 C

5.9 C

5.8 C

0 W/m

0.00 mm

05:30

5.8 C

1004.4 hpa

85 %

3.2 km/h aus 118

6.4 km/h aus E

3.5 C

5.8 C

5.8 C

5.8 C

0 W/m

0.00 mm

05:35

5.7 C

1004.4 hpa

86 %

1.6 km/h aus 117

6.4 km/h aus E

3.5 C

5.6 C

5.7 C

5.6 C

0 W/m

0.00 mm

05:40

5.6 C

1004.4 hpa

86 %

1.6 km/h aus 117

4.8 km/h aus E

3.4 C

5.4 C

5.6 C

5.4 C

0 W/m

0.00 mm

05:45

5.4 C

1004.3 hpa

86 %

1.6 km/h aus 117

6.4 km/h aus E

3.3 C

5.3 C

5.4 C

5.3 C

0 W/m

0.00 mm

05:50

5.4 C

1004.3 hpa

87 %

0.0 km/h aus 117

4.8 km/h aus E

3.4 C

5.3 C

5.4 C

5.3 C

0 W/m

0.00 mm

05:55

5.3 C

1004.3 hpa

87 %

0.0 km/h aus 117

3.2 km/h aus E

3.3 C

5.3 C

5.3 C

5.3 C

0 W/m

0.00 mm

06:00

5.3 C

1004.1 hpa

87 %

1.6 km/h aus 117

4.8 km/h aus E

3.3 C

5.3 C

5.3 C

5.3 C

0 W/m

0.00 mm

06:05

5.2 C

1004.1 hpa

87 %

1.6 km/h aus 117

4.8 km/h aus E

3.2 C

5.2 C

5.2 C

5.2 C

0 W/m

0.00 mm

06:10

5.2 C

1004.1 hpa

88 %

1.6 km/h aus 115

6.4 km/h aus E

3.3 C

5.1 C

5.2 C

5.1 C

0 W/m

0.00 mm

06:15

5.1 C

1004.1 hpa

88 %

1.6 km/h aus 117

4.8 km/h aus E

3.2 C

5.0 C

5.1 C

5.0 C

0 W/m

0.00 mm

06:20

5.1 C

1004.1 hpa

88 %

0.0 km/h aus 117

3.2 km/h aus E

3.2 C

5.0 C

5.1 C

5.0 C

0 W/m

0.00 mm

06:25

5.1 C

1004.1 hpa

88 %

0.0 km/h aus 116

1.6 km/h aus E

3.2 C

5.0 C

5.1 C

5.0 C

0 W/m

0.00 mm

06:30

5.1 C

1003.8 hpa

89 %

0.0 km/h aus 117

1.6 km/h aus E

3.4 C

5.0 C

5.1 C

5.0 C

0 W/m

0.00 mm

06:35

5.2 C

1003.8 hpa

89 %

1.6 km/h aus 116

8.0 km/h aus E

3.5 C

5.1 C

5.2 C

5.1 C

0 W/m

0.00 mm

06:40

5.8 C

1003.8 hpa

90 %

3.2 km/h aus 116

11.3 km/h aus E

4.3 C

5.8 C

5.8 C

5.8 C

0 W/m

0.00 mm

06:45

6.4 C

1003.6 hpa

90 %

4.8 km/h aus 117

9.7 km/h aus E

4.9 C

5.7 C

5.7 C

6.4 C

0 W/m

0.00 mm

06:50

6.9 C

1003.6 hpa

88 %

6.4 km/h aus 117

14.5 km/h aus ESE

5.1 C

5.8 C

5.8 C

6.9 C

0 W/m

0.00 mm

06:55

7.3 C

1003.6 hpa

86 %

4.8 km/h aus 116

11.3 km/h aus ESE

5.1 C

6.7 C

6.7 C

7.2 C

0 W/m

0.00 mm

07:00

7.5 C

1003.5 hpa

85 %

3.2 km/h aus 116

16.1 km/h aus E

5.1 C

7.5 C

7.5 C

7.5 C

0 W/m

0.00 mm

07:05

7.6 C

1003.5 hpa

84 %

4.8 km/h aus 116

9.7 km/h aus E

5.1 C

7.1 C

7.1 C

7.6 C

0 W/m

0.00 mm

07:10

7.7 C

1003.5 hpa

83 %

1.6 km/h aus 117

6.4 km/h aus E

5.0 C

7.6 C

7.7 C

7.6 C

0 W/m

0.00 mm

07:15

7.7 C

1003.5 hpa

82 %

4.8 km/h aus 117

12.9 km/h aus E

4.8 C

7.2 C

7.3 C

7.7 C

0 W/m

0.00 mm

07:20

7.8 C

1003.5 hpa

82 %

3.2 km/h aus 117

9.7 km/h aus E

4.9 C

7.7 C

7.8 C

7.7 C

0 W/m

0.00 mm

07:25

7.8 C

1003.5 hpa

82 %

3.2 km/h aus 117

9.7 km/h aus E

4.9 C

7.8 C

7.8 C

7.8 C

0 W/m

0.00 mm

07:30

7.9 C

1003.4 hpa

82 %

1.6 km/h aus 117

6.4 km/h aus E

5.0 C

7.8 C

7.9 C

7.8 C

0 W/m

0.00 mm

07:35

7.9 C

1003.4 hpa

82 %

3.2 km/h aus 117

14.5 km/h aus E

5.1 C

7.9 C

7.9 C

7.9 C

0 W/m

0.00 mm

07:40

8.1 C

1003.4 hpa

81 %

3.2 km/h aus 116

8.0 km/h aus E

5.0 C

7.9 C

8.1 C

7.9 C

0 W/m

0.00 mm

07:45

8.2 C

1003.4 hpa

81 %

6.4 km/h aus 117

14.5 km/h aus E

5.1 C

7.1 C

7.2 C

8.1 C

0 W/m

0.00 mm

07:50

8.3 C

1003.4 hpa

81 %

4.8 km/h aus 117

11.3 km/h aus E

5.2 C

7.8 C

7.9 C

8.2 C

0 W/m

0.00 mm

07:55

8.3 C

1003.4 hpa

81 %

6.4 km/h aus 116

16.1 km/h aus E

5.3 C

7.3 C

7.4 C

8.2 C

0 W/m

0.00 mm

08:00

8.4 C

1003.3 hpa

80 %

6.4 km/h aus 117

17.7 km/h aus E

5.1 C

7.4 C

7.5 C

8.3 C

0 W/m

0.00 mm

08:05

8.4 C

1003.3 hpa

80 %

8.0 km/h aus 117

16.1 km/h aus ESE

5.2 C

7.1 C

7.2 C

8.3 C

0 W/m

0.00 mm

08:10

8.5 C

1003.3 hpa

80 %

4.8 km/h aus 117

9.7 km/h aus ESE

5.2 C

8.0 C

8.1 C

8.4 C

0 W/m

0.00 mm

08:15

8.5 C

1003.3 hpa

80 %

1.6 km/h aus 117

6.4 km/h aus ESE

5.2 C

8.4 C

8.5 C

8.4 C

0 W/m

0.00 mm

08:20

8.5 C

1003.3 hpa

81 %

1.6 km/h aus 115

8.0 km/h aus ESE

5.4 C

8.4 C

8.5 C

8.4 C

0 W/m

0.00 mm

08:25

8.5 C

1003.3 hpa

81 %

3.2 km/h aus 117

8.0 km/h aus ESE

5.4 C

8.4 C

8.5 C

8.4 C

0 W/m

0.00 mm

08:30

8.6 C

1003.1 hpa

81 %

3.2 km/h aus 117

8.0 km/h aus ESE

5.5 C

8.5 C

8.6 C

8.5 C

0 W/m

0.00 mm

08:35

8.7 C

1003.1 hpa

80 %

3.2 km/h aus 116

8.0 km/h aus ESE

5.5 C

8.7 C

8.7 C

8.7 C

0 W/m

0.00 mm

08:40

8.8 C

1003.1 hpa

80 %

4.8 km/h aus 117

9.7 km/h aus ESE

5.5 C

8.4 C

8.4 C

8.7 C

0 W/m

0.00 mm

08:45

8.9 C

1003.0 hpa

80 %

4.8 km/h aus 117

14.5 km/h aus E

5.6 C

8.5 C

8.6 C

8.8 C

0 W/m

0.00 mm

08:50

9.0 C

1003.0 hpa

80 %

6.4 km/h aus 117

14.5 km/h aus ESE

5.7 C

8.2 C

8.2 C

8.9 C

0 W/m

0.00 mm

08:55

9.1 C

1003.0 hpa

80 %

4.8 km/h aus 117

9.7 km/h aus E

5.8 C

8.7 C

8.8 C

9.1 C

0 W/m

0.00 mm

09:00

9.1 C

1003.0 hpa

80 %

3.2 km/h aus 115

6.4 km/h aus E

5.8 C

9.1 C

9.1 C

9.1 C

0 W/m

0.00 mm

09:05

9.2 C

1003.0 hpa

80 %

3.2 km/h aus 117

9.7 km/h aus E

5.9 C

9.1 C

9.2 C

9.1 C

0 W/m

0.00 mm

09:10

9.1 C

1003.0 hpa

81 %

9.7 km/h aus 116

20.9 km/h aus ESE

6.0 C

7.6 C

7.6 C

9.0 C

0 W/m

0.00 mm

09:15

8.9 C

1003.0 hpa

82 %

6.4 km/h aus 116

14.5 km/h aus ESE

6.0 C

8.1 C

8.2 C

8.9 C

0 W/m

0.00 mm

09:20

8.8 C

1003.0 hpa

83 %

4.8 km/h aus 116

9.7 km/h aus ESE

6.1 C

8.5 C

8.5 C

8.8 C

0 W/m

0.00 mm

09:25

8.8 C

1003.0 hpa

84 %

4.8 km/h aus 116

16.1 km/h aus E

6.2 C

8.4 C

8.4 C

8.8 C

0 W/m

0.00 mm

09:30

8.8 C

1003.0 hpa

84 %

4.8 km/h aus 117

12.9 km/h aus E

6.3 C

8.5 C

8.5 C

8.8 C

0 W/m

0.00 mm

09:35

8.9 C

1003.0 hpa

84 %

1.6 km/h aus 117

8.0 km/h aus ENE

6.3 C

8.9 C

8.9 C

8.9 C

0 W/m

0.00 mm

09:40

8.9 C

1003.0 hpa

85 %

3.2 km/h aus 116

8.0 km/h aus ENE

6.6 C

8.9 C

8.9 C

8.9 C

0 W/m

0.00 mm

09:45

9.0 C

1003.0 hpa

84 %

4.8 km/h aus 118

9.7 km/h aus ENE

6.4 C

8.7 C

8.7 C

9.0 C

0 W/m

0.00 mm

09:50

9.0 C

1003.0 hpa

88 %

3.2 km/h aus 117

9.7 km/h aus ENE

7.1 C

9.1 C

9.0 C

9.1 C

0 W/m

0.00 mm

09:55

9.1 C

1003.0 hpa

85 %

3.2 km/h aus 117

8.0 km/h aus ENE

6.7 C

9.1 C

9.1 C

9.1 C

0 W/m

0.00 mm

10:00

9.0 C

1003.0 hpa

85 %

3.2 km/h aus 116

9.7 km/h aus E

6.6 C

9.0 C

9.0 C

9.0 C

0 W/m

0.00 mm

10:05

9.0 C

1003.0 hpa

84 %

4.8 km/h aus 116

11.3 km/h aus E

6.4 C

8.7 C

8.7 C

9.0 C

0 W/m

0.00 mm

10:10

9.0 C

1003.0 hpa

83 %

4.8 km/h aus 117

14.5 km/h aus E

6.3 C

8.7 C

8.7 C

9.0 C

0 W/m

0.00 mm

10:15

9.1 C

1003.0 hpa

83 %

4.8 km/h aus 117

9.7 km/h aus E

6.3 C

8.7 C

8.7 C

9.1 C

0 W/m

0.00 mm

10:20

9.1 C

1003.0 hpa

84 %

1.6 km/h aus 117

6.4 km/h aus E

6.5 C

9.1 C

9.1 C

9.1 C

0 W/m

0.00 mm

10:25

9.1 C

1003.0 hpa

83 %

4.8 km/h aus 116

12.9 km/h aus E

6.4 C

8.8 C

8.8 C

9.1 C

0 W/m

0.00 mm

10:30

9.2 C

1003.0 hpa

83 %

3.2 km/h aus 117

8.0 km/h aus ESE

6.4 C

9.2 C

9.2 C

9.2 C

0 W/m

0.00 mm

10:35

9.2 C

1003.0 hpa

84 %

6.4 km/h aus 117

14.5 km/h aus E

6.6 C

8.4 C

8.4 C

9.2 C

0 W/m

0.00 mm

10:40

9.2 C

1003.0 hpa

83 %

9.7 km/h aus 117

24.1 km/h aus E

6.4 C

7.7 C

7.7 C

9.2 C

0 W/m

0.00 mm

10:45

9.2 C

1002.9 hpa

83 %

9.7 km/h aus 116

20.9 km/h aus ESE

6.4 C

7.7 C

7.7 C

9.2 C

0 W/m

0.00 mm

10:50

9.1 C

1002.9 hpa

83 %

11.3 km/h aus 117

22.5 km/h aus ESE

6.4 C

7.4 C

7.4 C

9.1 C

0 W/m

0.00 mm

10:55

9.1 C

1002.9 hpa

84 %

12.9 km/h aus 115

22.5 km/h aus ESE

6.5 C

6.9 C

6.9 C

9.1 C

0 W/m

0.25 mm

11:00

8.9 C

1002.9 hpa

85 %

12.9 km/h aus 117

25.7 km/h aus E

6.5 C

6.7 C

6.7 C

8.9 C

0 W/m

0.25 mm

11:05

8.7 C

1002.9 hpa

86 %

11.3 km/h aus 116

22.5 km/h aus ESE

6.5 C

6.8 C

6.8 C

8.7 C

0 W/m

0.25 mm

11:10

8.5 C

1002.9 hpa

88 %

12.9 km/h aus 115

20.9 km/h aus ESE

6.6 C

6.3 C

6.3 C

8.6 C

0 W/m

0.76 mm

11:15

8.4 C

1002.8 hpa

88 %

12.9 km/h aus 116

20.9 km/h aus ESE

6.6 C

6.2 C

6.2 C

8.5 C

0 W/m

0.00 mm

11:20

8.4 C

1002.8 hpa

89 %

14.5 km/h aus 117

22.5 km/h aus ESE

6.7 C

5.9 C

5.8 C

8.5 C

0 W/m

0.00 mm

11:25

8.4 C

1002.8 hpa

90 %

16.1 km/h aus 117

27.4 km/h aus ESE

6.8 C

5.6 C

5.5 C

8.5 C

0 W/m

0.25 mm

11:30

8.4 C

1002.7 hpa

90 %

12.9 km/h aus 116

22.5 km/h aus ESE

6.8 C

6.2 C

6.1 C

8.5 C

0 W/m

0.00 mm

11:35

8.4 C

1002.7 hpa

91 %

8.0 km/h aus 116

22.5 km/h aus E

7.0 C

7.2 C

7.1 C

8.5 C

0 W/m

0.00 mm

11:40

8.4 C

1002.7 hpa

91 %

8.0 km/h aus 116

16.1 km/h aus E

7.1 C

7.3 C

7.2 C

8.6 C

0 W/m

0.00 mm

11:45

8.5 C

1002.6 hpa

91 %

9.7 km/h aus 116

19.3 km/h aus E

7.1 C

7.1 C

6.9 C

8.6 C

0 W/m

0.25 mm

11:50

8.6 C

1002.6 hpa

92 %

9.7 km/h aus 118

17.7 km/h aus ESE

7.3 C

7.2 C

7.0 C

8.7 C

0 W/m

0.00 mm

11:55

8.6 C

1002.6 hpa

91 %

8.0 km/h aus 117

19.3 km/h aus ESE

7.2 C

7.4 C

7.3 C

8.7 C

0 W/m

0.25 mm

12:00

8.6 C

1002.4 hpa

92 %

9.7 km/h aus 116

25.7 km/h aus ESE

7.3 C

7.2 C

7.0 C

8.7 C

0 W/m

0.00 mm

12:05

8.6 C

1002.4 hpa

92 %

11.3 km/h aus 116

20.9 km/h aus ESE

7.3 C

6.9 C

6.7 C

8.7 C

0 W/m

0.25 mm

12:10

8.6 C

1002.4 hpa

92 %

8.0 km/h aus 67

17.7 km/h aus E

7.3 C

7.5 C

7.3 C

8.7 C

0 W/m

0.00 mm

12:15

8.6 C

1002.4 hpa

92 %

6.4 km/h aus 117

14.5 km/h aus E

7.3 C

7.9 C

7.7 C

8.7 C

0 W/m

0.00 mm

12:20

8.7 C

1002.4 hpa

92 %

6.4 km/h aus 116

14.5 km/h aus E

7.4 C

8.0 C

7.8 C

8.8 C

0 W/m

0.25 mm

12:25

8.7 C

1002.4 hpa

92 %

4.8 km/h aus 117

14.5 km/h aus ESE

7.5 C

8.6 C

8.4 C

8.9 C

0 W/m

0.00 mm

12:30

8.8 C

1002.4 hpa

93 %

8.0 km/h aus 117

16.1 km/h aus SE

7.7 C

7.8 C

7.6 C

8.9 C

0 W/m

0.00 mm

12:35

8.8 C

1002.4 hpa

93 %

6.4 km/h aus 116

16.1 km/h aus ESE

7.7 C

8.2 C

8.0 C

8.9 C

0 W/m

0.00 mm

12:40

8.8 C

1002.4 hpa

93 %

6.4 km/h aus 117

16.1 km/h aus ESE

7.7 C

8.2 C

8.0 C

8.9 C

0 W/m

0.00 mm

12:45

8.9 C

1002.2 hpa

93 %

8.0 km/h aus 116

17.7 km/h aus E

7.8 C

7.9 C

7.7 C

9.1 C

0 W/m

0.00 mm

12:50

8.9 C

1002.2 hpa

93 %

9.7 km/h aus 117

19.3 km/h aus ESE

7.9 C

7.6 C

7.4 C

9.1 C

0 W/m

0.00 mm

12:55

9.0 C

1002.2 hpa

93 %

9.7 km/h aus 117

20.9 km/h aus SE

7.9 C

7.7 C

7.5 C

9.2 C

0 W/m

0.00 mm

13:00

9.1 C

1002.0 hpa

93 %

9.7 km/h aus 117

20.9 km/h aus SE

8.0 C

7.8 C

7.6 C

9.2 C

0 W/m

0.25 mm

13:05

9.1 C

1002.0 hpa

93 %

9.7 km/h aus 117

22.5 km/h aus ESE

8.0 C

7.9 C

7.7 C

9.3 C

0 W/m

0.25 mm

13:10

9.2 C

1002.0 hpa

93 %

8.0 km/h aus 116

14.5 km/h aus SSE

8.1 C

8.3 C

8.1 C

9.4 C

0 W/m

0.00 mm

13:15

9.2 C

1002.0 hpa

93 %

12.9 km/h aus 114

22.5 km/h aus ESE

8.1 C

7.3 C

7.1 C

9.4 C

0 W/m

0.00 mm

13:20

9.2 C

1002.0 hpa

93 %

11.3 km/h aus 117

24.1 km/h aus SE

8.1 C

7.7 C

7.4 C

9.4 C

0 W/m

0.25 mm

13:25

9.2 C

1002.0 hpa

93 %

11.3 km/h aus 117

19.3 km/h aus SE

8.1 C

7.7 C

7.5 C

9.4 C

0 W/m

0.00 mm

13:30

9.3 C

1001.9 hpa

93 %

9.7 km/h aus 117

19.3 km/h aus SE

8.2 C

8.1 C

7.8 C

9.5 C

0 W/m

0.00 mm

13:35

9.4 C

1001.9 hpa

93 %

11.3 km/h aus 117

20.9 km/h aus SSE

8.3 C

7.9 C

7.7 C

9.6 C

0 W/m

0.00 mm

13:40

9.5 C

1001.9 hpa

94 %

9.7 km/h aus 117

17.7 km/h aus SE

8.6 C

8.4 C

8.1 C

9.8 C

0 W/m

0.00 mm

13:45

9.6 C

1001.9 hpa

93 %

11.3 km/h aus 116

20.9 km/h aus SE

8.5 C

8.1 C

7.9 C

9.8 C

0 W/m

0.00 mm

13:50

9.6 C

1001.9 hpa

93 %

9.7 km/h aus 117

19.3 km/h aus SE

8.5 C

8.4 C

8.2 C

9.8 C

0 W/m

0.25 mm

13:55

9.7 C

1001.9 hpa

93 %

9.7 km/h aus 117

19.3 km/h aus SE

8.6 C

8.6 C

8.3 C

9.9 C

0 W/m

0.00 mm

14:00

9.7 C

1001.9 hpa

94 %

11.3 km/h aus 117

19.3 km/h aus SE

8.8 C

8.4 C

8.1 C

10.0 C

0 W/m

0.00 mm

14:05

9.8 C

1001.9 hpa

94 %

12.9 km/h aus 117

24.1 km/h aus SSE

8.9 C

8.1 C

7.8 C

10.1 C

0 W/m

0.00 mm

14:10

9.8 C

1001.9 hpa

94 %

11.3 km/h aus 117

20.9 km/h aus SSE

8.9 C

8.4 C

8.2 C

10.1 C

0 W/m

0.00 mm

14:15

9.8 C

1001.9 hpa

94 %

9.7 km/h aus 116

17.7 km/h aus SSE

8.9 C

8.8 C

8.5 C

10.1 C

0 W/m

0.00 mm

14:20

9.9 C

1001.9 hpa

94 %

12.9 km/h aus 116

17.7 km/h aus SE

9.0 C

8.3 C

8.0 C

10.2 C

0 W/m

0.00 mm

14:25

9.9 C

1001.9 hpa

94 %

11.3 km/h aus 117

16.1 km/h aus SSE

9.0 C

8.7 C

8.4 C

10.2 C

0 W/m

0.00 mm

14:30

10.0 C

1002.0 hpa

94 %

12.9 km/h aus 116

17.7 km/h aus SSE

9.1 C

8.3 C

8.1 C

10.3 C

0 W/m

0.00 mm

14:35

10.1 C

1002.0 hpa

94 %

11.3 km/h aus 115

17.7 km/h aus SSE

9.2 C

8.8 C

8.6 C

10.3 C

0 W/m

0.00 mm

14:40

10.2 C

1002.0 hpa

94 %

9.7 km/h aus 117

16.1 km/h aus SSE

9.3 C

9.2 C

9.0 C

10.4 C

0 W/m

0.00 mm

14:45

10.2 C

1002.1 hpa

94 %

8.0 km/h aus 117

14.5 km/h aus SSE

9.3 C

9.5 C

9.3 C

10.4 C

0 W/m

0.00 mm

14:50

10.3 C

1002.1 hpa

94 %

6.4 km/h aus 116

11.3 km/h aus SSE

9.4 C

9.9 C

9.7 C

10.5 C

0 W/m

0.00 mm

14:55

10.3 C

1002.1 hpa

94 %

6.4 km/h aus 117

11.3 km/h aus SSE

9.4 C

10.0 C

9.8 C

10.6 C

0 W/m

0.00 mm

15:00

10.4 C

1002.1 hpa

94 %

6.4 km/h aus 117

11.3 km/h aus SSE

9.5 C

10.1 C

9.8 C

10.6 C

0 W/m

0.00 mm

15:05

10.4 C

1002.1 hpa

94 %

8.0 km/h aus 117

14.5 km/h aus SSE

9.5 C

9.7 C

9.4 C

10.6 C

0 W/m

0.00 mm

15:10

10.4 C

1002.1 hpa

94 %

11.3 km/h aus 117

17.7 km/h aus SSE

9.5 C

9.2 C

9.0 C

10.7 C

0 W/m

0.00 mm

15:15

10.4 C

1002.1 hpa

94 %

12.9 km/h aus 117

20.9 km/h aus SSE

9.5 C

8.8 C

8.6 C

10.7 C

0 W/m

0.00 mm

15:20

10.6 C

1002.1 hpa

94 %

9.7 km/h aus 117

16.1 km/h aus SSE

9.6 C

9.6 C

9.4 C

10.8 C

0 W/m

0.00 mm

15:25

10.7 C

1002.1 hpa

95 %

11.3 km/h aus 117

16.1 km/h aus SSE

9.9 C

9.4 C

9.2 C

10.9 C

0 W/m

0.25 mm

15:30

10.7 C

1002.4 hpa

95 %

11.3 km/h aus 117

17.7 km/h aus SSE

10.0 C

9.6 C

9.3 C

10.9 C

0 W/m

0.00 mm

15:35

10.7 C

1002.4 hpa

95 %

9.7 km/h aus 117

16.1 km/h aus SSE

10.0 C

9.8 C

9.6 C

10.9 C

0 W/m

0.00 mm

15:40

10.7 C

1002.4 hpa

95 %

9.7 km/h aus 116

16.1 km/h aus SSE

10.0 C

9.8 C

9.6 C

10.9 C

0 W/m

0.00 mm

15:45

10.8 C

1002.4 hpa

95 %

12.9 km/h aus 117

17.7 km/h aus SSE

10.0 C

9.2 C

9.0 C

11.0 C

0 W/m

0.00 mm

15:50

10.8 C

1002.4 hpa

95 %

14.5 km/h aus 116

19.3 km/h aus SSE

10.1 C

8.9 C

8.7 C

11.1 C

0 W/m

0.00 mm

15:55

10.8 C

1002.4 hpa

95 %

12.9 km/h aus 117

19.3 km/h aus SSE

10.1 C

9.3 C

9.1 C

11.1 C

0 W/m

0.00 mm

16:00

10.9 C

1002.4 hpa

95 %

12.9 km/h aus 116

17.7 km/h aus SSE

10.1 C

9.3 C

9.1 C

11.1 C

0 W/m

0.00 mm

16:05

11.0 C

1002.4 hpa

95 %

11.3 km/h aus 118

14.5 km/h aus SSE

10.2 C

9.8 C

9.7 C

11.2 C

0 W/m

0.00 mm

16:10

11.1 C

1002.4 hpa

95 %

9.7 km/h aus 117

16.1 km/h aus SSE

10.3 C

10.1 C

9.9 C

11.2 C

0 W/m

0.00 mm

16:15

11.1 C

1002.4 hpa

95 %

9.7 km/h aus 117

19.3 km/h aus SSE

10.3 C

10.1 C

9.9 C

11.2 C

0 W/m

0.25 mm

16:20

11.1 C

1002.4 hpa

95 %

9.7 km/h aus 116

16.1 km/h aus SSE

10.3 C

10.1 C

9.9 C

11.2 C

0 W/m

0.00 mm

16:25

11.1 C

1002.4 hpa

95 %

11.3 km/h aus 117

16.1 km/h aus SSE

10.3 C

9.9 C

9.7 C

11.2 C

0 W/m

0.00 mm

16:30

11.2 C

1002.5 hpa

95 %

12.9 km/h aus 117

17.7 km/h aus SSE

10.4 C

9.6 C

9.4 C

11.3 C

0 W/m

0.00 mm

16:35

11.3 C

1002.5 hpa

95 %

12.9 km/h aus 116

17.7 km/h aus SSE

10.5 C

9.8 C

9.6 C

11.4 C

0 W/m

0.00 mm

16:40

11.3 C

1002.5 hpa

95 %

11.3 km/h aus 115

16.1 km/h aus SSE

10.6 C

10.2 C

10.1 C

11.5 C

0 W/m

0.00 mm

16:45

11.4 C

1002.5 hpa

95 %

11.3 km/h aus 117

17.7 km/h aus SSE

10.7 C

10.3 C

10.2 C

11.6 C

0 W/m

0.00 mm

16:50

11.5 C

1002.5 hpa

95 %

9.7 km/h aus 117

14.5 km/h aus SSE

10.7 C

10.6 C

10.4 C

11.7 C

0 W/m

0.00 mm

16:55

11.6 C

1002.5 hpa

95 %

11.3 km/h aus 117

17.7 km/h aus SSE

10.8 C

10.5 C

10.3 C

11.7 C

0 W/m

0.00 mm

17:00

11.6 C

1002.5 hpa

95 %

9.7 km/h aus 117

16.1 km/h aus S

10.8 C

10.8 C

10.6 C

11.8 C

0 W/m

0.00 mm

17:05

11.7 C

1002.5 hpa

95 %

9.7 km/h aus 118

14.5 km/h aus S

10.9 C

10.8 C

10.7 C

11.8 C

0 W/m

0.00 mm

17:10

11.7 C

1002.5 hpa

95 %

11.3 km/h aus 117

16.1 km/h aus S

10.9 C

10.7 C

10.5 C

11.9 C

0 W/m

0.00 mm

17:15

12.0 C

1002.7 hpa

95 %

12.9 km/h aus 115

20.9 km/h aus S

11.2 C

10.6 C

10.4 C

12.1 C

0 W/m

0.00 mm

17:20

12.2 C

1002.7 hpa

95 %

11.3 km/h aus 117

17.7 km/h aus S

11.4 C

11.2 C

11.1 C

12.3 C

0 W/m

0.00 mm

17:25

12.3 C

1002.7 hpa

95 %

11.3 km/h aus 116

16.1 km/h aus S

11.6 C

11.3 C

11.2 C

12.4 C

0 W/m

0.00 mm

17:30

12.4 C

1002.8 hpa

95 %

9.7 km/h aus 117

14.5 km/h aus S

11.7 C

11.7 C

11.6 C

12.6 C

0 W/m

0.00 mm

17:35

12.4 C

1002.8 hpa

95 %

9.7 km/h aus 117

17.7 km/h aus S

11.6 C

11.7 C

11.6 C

12.5 C

0 W/m

0.00 mm

17:40

12.3 C

1002.8 hpa

94 %

11.3 km/h aus 117

17.7 km/h aus S

11.4 C

11.3 C

11.2 C

12.4 C

0 W/m

0.00 mm

17:45

12.3 C

1002.9 hpa

94 %

11.3 km/h aus 117

19.3 km/h aus SSW

11.3 C

11.3 C

11.2 C

12.4 C

0 W/m

0.00 mm

17:50

12.2 C

1002.9 hpa

94 %

9.7 km/h aus 117

14.5 km/h aus S

11.3 C

11.4 C

11.3 C

12.3 C

0 W/m

0.00 mm

17:55

12.2 C

1002.9 hpa

94 %

8.0 km/h aus 117

11.3 km/h aus S

11.2 C

11.7 C

11.6 C

12.3 C

0 W/m

0.00 mm

18:00

12.2 C

1003.0 hpa

94 %

11.3 km/h aus 117

20.9 km/h aus S

11.2 C

11.2 C

11.1 C

12.3 C

0 W/m

0.00 mm

18:05

12.2 C

1003.0 hpa

94 %

9.7 km/h aus 117

16.1 km/h aus S

11.2 C

11.4 C

11.3 C

12.3 C

0 W/m

0.00 mm

18:10

12.1 C

1003.0 hpa

94 %

8.0 km/h aus 118

12.9 km/h aus S

11.2 C

11.6 C

11.5 C

12.2 C

0 W/m

0.00 mm

18:15

12.1 C

1003.1 hpa

94 %

8.0 km/h aus 117

14.5 km/h aus S

11.2 C

11.6 C

11.5 C

12.2 C

0 W/m

0.00 mm

18:20

12.1 C

1003.1 hpa

94 %

9.7 km/h aus 116

19.3 km/h aus S

11.2 C

11.3 C

11.2 C

12.2 C

0 W/m

0.00 mm

18:25

12.1 C

1003.1 hpa

94 %

12.9 km/h aus 117

20.9 km/h aus S

11.2 C

10.7 C

10.6 C

12.2 C

0 W/m

0.00 mm

18:30

12.1 C

1003.4 hpa

94 %

17.7 km/h aus 117

32.2 km/h aus SSW

11.2 C

9.7 C

9.6 C

12.2 C

0 W/m

0.00 mm

18:35

12.0 C

1003.4 hpa

94 %

20.9 km/h aus 116

35.4 km/h aus SW

11.1 C

9.0 C

8.9 C

12.1 C

0 W/m

0.00 mm

18:40

11.8 C

1003.4 hpa

94 %

20.9 km/h aus 116

37.0 km/h aus SW

10.9 C

8.8 C

8.7 C

11.9 C

0 W/m

0.00 mm

18:45

11.8 C

1003.6 hpa

93 %

16.1 km/h aus 116

32.2 km/h aus WSW

10.7 C

9.6 C

9.4 C

11.9 C

0 W/m

0.00 mm

18:50

11.7 C

1003.6 hpa

93 %

16.1 km/h aus 117

30.6 km/h aus SW

10.6 C

9.4 C

9.3 C

11.8 C

0 W/m

0.00 mm

18:55

11.7 C

1003.6 hpa

93 %

12.9 km/h aus 116

20.9 km/h aus WSW

10.6 C

10.2 C

10.1 C

11.8 C

0 W/m

0.00 mm

19:00

11.7 C

1003.9 hpa

92 %

12.9 km/h aus 116

25.7 km/h aus SW

10.4 C

10.2 C

10.1 C

11.8 C

0 W/m

0.00 mm

19:05

11.7 C

1003.9 hpa

92 %

12.9 km/h aus 117

22.5 km/h aus SW

10.4 C

10.2 C

10.1 C

11.8 C

0 W/m

0.00 mm

19:10

11.7 C

1003.9 hpa

91 %

11.3 km/h aus 116

22.5 km/h aus SW

10.2 C

10.5 C

10.4 C

11.7 C

0 W/m

0.00 mm

19:15

11.7 C

1003.9 hpa

91 %

11.3 km/h aus 117

19.3 km/h aus SW

10.2 C

10.5 C

10.4 C

11.7 C

0 W/m

0.00 mm

19:20

11.7 C

1003.9 hpa

90 %

9.7 km/h aus 117

20.9 km/h aus SSW

10.1 C

10.8 C

10.7 C

11.8 C

0 W/m

0.00 mm

19:25

11.8 C

1003.9 hpa

89 %

12.9 km/h aus 117

25.7 km/h aus SSW

10.0 C

10.2 C

10.2 C

11.8 C

0 W/m

0.00 mm

19:30

11.8 C

1003.9 hpa

88 %

11.3 km/h aus 116

20.9 km/h aus SW

9.9 C

10.6 C

10.6 C

11.8 C

0 W/m

0.00 mm

19:35

11.8 C

1003.9 hpa

87 %

9.7 km/h aus 117

16.1 km/h aus SSW

9.7 C

10.9 C

10.9 C

11.8 C

0 W/m

0.00 mm

19:40

11.8 C

1003.9 hpa

87 %

8.0 km/h aus 116

16.1 km/h aus SSW

9.7 C

11.2 C

11.2 C

11.8 C

0 W/m

0.00 mm

19:45

11.9 C

1004.0 hpa

86 %

11.3 km/h aus 117

19.3 km/h aus SW

9.6 C

10.7 C

10.7 C

11.8 C

0 W/m

0.00 mm

19:50

11.9 C

1004.0 hpa

86 %

12.9 km/h aus 117

22.5 km/h aus SW

9.6 C

10.3 C

10.3 C

11.8 C

0 W/m

0.00 mm

19:55

11.9 C

1004.0 hpa

85 %

12.9 km/h aus 117

24.1 km/h aus SSW

9.5 C

10.3 C

10.4 C

11.9 C

0 W/m

0.00 mm

20:00

12.0 C

1004.1 hpa

85 %

17.7 km/h aus 117

29.0 km/h aus S

9.6 C

9.3 C

9.4 C

11.9 C

0 W/m

0.00 mm

20:05

12.1 C

1004.1 hpa

84 %

19.3 km/h aus 117

30.6 km/h aus SSW

9.5 C

9.2 C

9.3 C

12.1 C

0 W/m

0.00 mm

20:10

12.1 C

1004.1 hpa

84 %

17.7 km/h aus 117

30.6 km/h aus SSW

9.5 C

9.5 C

9.6 C

12.1 C

0 W/m

0.00 mm

20:15

12.2 C

1004.3 hpa

83 %

14.5 km/h aus 118

27.4 km/h aus SSW

9.4 C

10.2 C

10.3 C

12.1 C

0 W/m

0.00 mm

20:20

12.2 C

1004.3 hpa

83 %

16.1 km/h aus 115

30.6 km/h aus SSW

9.4 C

9.8 C

9.9 C

12.1 C

0 W/m

0.00 mm

20:25

12.2 C

1004.3 hpa

82 %

16.1 km/h aus 117

27.4 km/h aus SSW

9.2 C

9.8 C

9.9 C

12.1 C

0 W/m

0.00 mm

20:30

12.2 C

1004.5 hpa

82 %

16.1 km/h aus 117

29.0 km/h aus SW

9.2 C

9.8 C

9.9 C

12.1 C

0 W/m

0.00 mm

20:35

12.2 C

1004.5 hpa

81 %

16.1 km/h aus 117

25.7 km/h aus SW

9.1 C

9.8 C

10.0 C

12.1 C

0 W/m

0.00 mm

20:40

12.2 C

1004.5 hpa

81 %

16.1 km/h aus 117

35.4 km/h aus SW

9.1 C

9.8 C

10.0 C

12.1 C

0 W/m

0.00 mm

20:45

12.2 C

1004.6 hpa

80 %

20.9 km/h aus 116

32.2 km/h aus SSW

8.9 C

8.9 C

9.1 C

12.1 C

0 W/m

0.00 mm

20:50

12.2 C

1004.6 hpa

80 %

19.3 km/h aus 117

30.6 km/h aus S

8.9 C

9.2 C

9.4 C

12.1 C

0 W/m

0.00 mm

20:55

12.2 C

1004.6 hpa

80 %

20.9 km/h aus 117

33.8 km/h aus SSW

8.9 C

8.9 C

9.1 C

12.1 C

0 W/m

0.00 mm

21:00

12.2 C

1004.9 hpa

80 %

24.1 km/h aus 117

40.2 km/h aus SSW

8.8 C

8.5 C

8.7 C

12.0 C

0 W/m

0.00 mm

21:05

12.0 C

1004.9 hpa

80 %

24.1 km/h aus 117

40.2 km/h aus S

8.7 C

8.3 C

8.5 C

11.8 C

0 W/m

0.00 mm

21:10

11.9 C

1004.9 hpa

81 %

24.1 km/h aus 117

41.8 km/h aus SW

8.7 C

8.2 C

8.3 C

11.7 C

0 W/m

0.00 mm

21:15

11.7 C

1005.1 hpa

82 %

24.1 km/h aus 117

38.6 km/h aus SSW

8.7 C

8.1 C

8.2 C

11.6 C

0 W/m

0.00 mm

21:20

11.6 C

1005.1 hpa

82 %

25.7 km/h aus 118

45.1 km/h aus SW

8.6 C

7.8 C

7.9 C

11.5 C

0 W/m

0.00 mm

21:25

11.5 C

1005.1 hpa

83 %

22.5 km/h aus 117

41.8 km/h aus SW

8.7 C

8.1 C

8.1 C

11.4 C

0 W/m

0.00 mm

21:30

11.4 C

1005.4 hpa

83 %

19.3 km/h aus 117

35.4 km/h aus SSE

8.6 C

8.4 C

8.4 C

11.3 C

0 W/m

0.00 mm

21:35

11.3 C

1005.4 hpa

84 %

20.9 km/h aus 116

38.6 km/h aus SW

8.7 C

8.0 C

8.1 C

11.2 C

0 W/m

0.00 mm

21:40

11.2 C

1005.4 hpa

84 %

20.9 km/h aus 117

38.6 km/h aus SSW

8.6 C

7.9 C

8.0 C

11.2 C

0 W/m

0.00 mm

21:45

11.1 C

1005.6 hpa

84 %

19.3 km/h aus 117

40.2 km/h aus SSW

8.5 C

8.1 C

8.1 C

11.1 C

0 W/m

0.00 mm

21:50

11.0 C

1005.6 hpa

85 %

22.5 km/h aus 117

33.8 km/h aus WSW

8.6 C

7.6 C

7.6 C

11.0 C

0 W/m

0.00 mm

21:55

10.9 C

1005.6 hpa

85 %

17.7 km/h aus 117

32.2 km/h aus SW

8.5 C

8.2 C

8.2 C

10.9 C

0 W/m

0.00 mm

22:00

10.8 C

1006.0 hpa

85 %

20.9 km/h aus 117

41.8 km/h aus SSW

8.4 C

7.6 C

7.6 C

10.8 C

0 W/m

0.00 mm

22:05

10.8 C

1006.0 hpa

85 %

17.7 km/h aus 117

33.8 km/h aus SSW

8.4 C

8.1 C

8.1 C

10.8 C

0 W/m

0.00 mm

22:10

10.8 C

1006.0 hpa

85 %

17.7 km/h aus 117

33.8 km/h aus WSW

8.4 C

8.0 C

8.0 C

10.8 C

0 W/m

0.00 mm

22:15

10.7 C

1006.1 hpa

85 %

17.7 km/h aus 117

30.6 km/h aus SW

8.3 C

7.9 C

7.9 C

10.7 C

0 W/m

0.00 mm

22:20

10.7 C

1006.1 hpa

85 %

17.7 km/h aus 117

30.6 km/h aus WSW

8.3 C

7.9 C

7.9 C

10.7 C

0 W/m

0.00 mm

22:25

10.7 C

1006.1 hpa

85 %

19.3 km/h aus 118

30.6 km/h aus SW

8.2 C

7.6 C

7.6 C

10.7 C

0 W/m

0.00 mm

22:30

10.7 C

1006.4 hpa

85 %

16.1 km/h aus 117

29.0 km/h aus SW

8.2 C

8.2 C

8.2 C

10.7 C

0 W/m

0.25 mm

22:35

10.6 C

1006.4 hpa

86 %

16.1 km/h aus 117

30.6 km/h aus SW

8.3 C

8.1 C

8.1 C

10.6 C

0 W/m

0.00 mm

22:40

10.5 C

1006.4 hpa

86 %

17.7 km/h aus 117

32.2 km/h aus SSW

8.3 C

7.7 C

7.7 C

10.6 C

0 W/m

0.00 mm

22:45

10.4 C

1006.6 hpa

86 %

16.1 km/h aus 117

25.7 km/h aus SW

8.1 C

7.9 C

7.8 C

10.4 C

0 W/m

0.00 mm

22:50

10.3 C

1006.6 hpa

87 %

16.1 km/h aus 117

30.6 km/h aus SSW

8.2 C

7.8 C

7.7 C

10.3 C

0 W/m

0.00 mm

22:55

10.2 C

1006.6 hpa

87 %

19.3 km/h aus 117

32.2 km/h aus SW

8.2 C

7.1 C

7.1 C

10.3 C

0 W/m

0.00 mm

23:00

10.2 C

1006.6 hpa

87 %

19.3 km/h aus 117

32.2 km/h aus SSW

8.1 C

7.1 C

7.0 C

10.2 C

0 W/m

0.00 mm

23:05

10.1 C

1006.6 hpa

86 %

17.7 km/h aus 117

32.2 km/h aus SW

7.9 C

7.3 C

7.2 C

10.2 C

0 W/m

0.00 mm

23:10

10.1 C

1006.6 hpa

86 %

19.3 km/h aus 117

33.8 km/h aus SSW

7.9 C

7.0 C

6.9 C

10.2 C

0 W/m

0.00 mm

23:15

10.1 C

1006.7 hpa

86 %

16.1 km/h aus 117

29.0 km/h aus SSW

7.8 C

7.5 C

7.4 C

10.1 C

0 W/m

0.00 mm

23:20

10.1 C

1006.7 hpa

85 %

17.7 km/h aus 117

30.6 km/h aus S

7.6 C

7.2 C

7.2 C

10.1 C

0 W/m

0.00 mm

23:25

10.1 C

1006.7 hpa

85 %

12.9 km/h aus 118

24.1 km/h aus SSW

7.6 C

8.2 C

8.1 C

10.1 C

0 W/m

0.00 mm

23:30

10.1 C

1006.9 hpa

84 %

16.1 km/h aus 117

27.4 km/h aus WSW

7.5 C

7.5 C

7.4 C

10.1 C

0 W/m

0.00 mm

23:35

10.1 C

1006.9 hpa

84 %

16.1 km/h aus 117

29.0 km/h aus SSW

7.5 C

7.5 C

7.4 C

10.1 C

0 W/m

0.00 mm

23:40

10.1 C

1006.9 hpa

83 %

14.5 km/h aus 116

27.4 km/h aus S

7.3 C

7.8 C

7.8 C

10.1 C

0 W/m

0.00 mm

23:45

10.0 C

1007.0 hpa

83 %

11.3 km/h aus 117

25.7 km/h aus SW

7.2 C

8.5 C

8.4 C

10.1 C

0 W/m

0.00 mm

23:50

10.0 C

1007.0 hpa

83 %

12.9 km/h aus 117

22.5 km/h aus WSW

7.2 C

8.1 C

8.1 C

10.1 C

0 W/m

0.00 mm

23:55

9.9 C

1007.0 hpa

82 %

11.3 km/h aus 116

22.5 km/h aus SW

7.0 C

8.4 C

8.4 C

9.9 C

0 W/m

0.00 mm